This is the latest recevied weather packets stored in our database for station/object KD8BMB. If no packets are shown the sender has not sent any weather packets the latest 10 day(s).
| Time | Temp. | Humidity | Pressure | Rain* | Wind** | Luminosity | Snow |
|---|---|---|---|---|---|---|---|
| 1778018717 | 13.33° C | 42% | 1006.7 hPa | 0 mm | - | 117 W/m² | - |
| 1778018415 | 13.33° C | 41% | 1006.8 hPa | 0 mm | - | 127 W/m² | - |
| 1778018113 | 13.33° C | 42% | 1006.7 hPa | 0 mm | - | 136 W/m² | - |
| 1778017810 | 13.89° C | 42% | 1006.5 hPa | 0 mm | - | 135 W/m² | - |
| 1778017508 | 13.89° C | 43% | 1006.7 hPa | 0 mm | - | 143 W/m² | - |
| 1778017205 | 13.33° C | 42% | 1006.7 hPa | 0 mm | - | 144 W/m² | - |
| 1778016903 | 13.89° C | 44% | 1006.7 hPa | 0 mm | - | 142 W/m² | - |
| 1778016599 | 13.89° C | 42% | 1006.4 hPa | 0 mm | - | 142 W/m² | - |
| 1778016295 | 13.89° C | 43% | 1006.6 hPa | 0 mm | - | 137 W/m² | - |
| 1778015992 | 13.89° C | 44% | 1006.6 hPa | 0 mm | - | 141 W/m² | - |
| 1778015690 | 13.89° C | 43% | 1006.8 hPa | 0 mm | - | 146 W/m² | - |
| 1778015385 | 13.89° C | 44% | 1006.7 hPa | 0 mm | - | 154 W/m² | - |
| 1778015083 | 13.89° C | 44% | 1006.7 hPa | 0 mm | - | 177 W/m² | - |
| 1778014780 | 13.89° C | 46% | 1006.6 hPa | 0 mm | - | 189 W/m² | - |
| 1778014478 | 13.89° C | 45% | 1006.6 hPa | 0 mm | - | 201 W/m² | - |
| 1778014174 | 13.89° C | 45% | 1006.6 hPa | 0 mm | - | 225 W/m² | - |
| 1778013872 | 14.44° C | 49% | 1006.5 hPa | 0 mm | - | 221 W/m² | - |
| 1778013569 | 13.89° C | 50% | 1006.5 hPa | 0 mm | - | 215 W/m² | - |
| 1778013266 | 13.89° C | 49% | 1006.5 hPa | 0 mm | - | 216 W/m² | - |
| 1778012962 | 14.44° C | 48% | 1006.5 hPa | 0 mm | - | 257 W/m² | - |
| 1778012659 | 13.89° C | 52% | 1006.8 hPa | 0 mm | - | 268 W/m² | - |
| 1778012355 | 13.89° C | 55% | 1006.5 hPa | 0 mm | - | 244 W/m² | - |
| 1778012052 | 13.89° C | 53% | 1006.7 hPa | 0 mm | - | 219 W/m² | - |
| 1778011751 | 13.89° C | 54% | 1006.9 hPa | 0 mm | - | 195 W/m² | - |
| 1778011447 | 13.89° C | 54% | 1006.8 hPa | 0 mm | - | 206 W/m² | - |
* Rain latest hour (hover to see other rain measurements)
** Current wind speed in m/s (hover to see current wind gust speed)